FALCON 9 DEB (45107 NORAD) Tracking and Keplerian Element Data

This shows tracking and keplerian element data for the satellite.

Feedback or suggestion? Click here.




ElementValue
Catalog45107
NameFALCON 9 DEB
Epoch Orbit769
Epoch Day77.45722022
Epoch Year2020
RAAN347.4991
Inclination52.9903
Eccentricity0.0008678
Argument of Perigee187.7168
Mean Anonmoly172.3738
Mean Motion16.2165955
Decay Rate0.00959952
L11 45107U 20006BR 20077.45722022 .00959952 11856-4 42192-3 0 9990
L22 45107 52.9903 347.4991 0008678 187.7168 172.3738 16.21659550 7694

Live tracking and technical data element details for FALCON 9 DEB (NORAD 45107). FALCON 9 DEB can be tracked NOW for your location showing map with azimuth and elevation plus other details from your city location.

Track the satellite on the map from your city or location and see movement details for azimuth, elevation, latitude, longitude, range, height, and movement on the map or in text.







IsCatalogInMostPopularTable: catalog: 45107, numindb: 12
Update: records affected: 1



GetName: 45107 FALCON 9 DEB

Hit Count: updated at: Sun, 05 Apr 2020 18:43:05 GMT